Time,TemperatureF,DewpointF,PressureIn,WindDirection,WindDirectionDegrees,WindSpeedMPH,WindSpeedGustMPH,Humidity,HourlyPrecipIn,Conditions,Clouds,dailyrainin,SoftwareType,DateUTC
2014-12-26 00:03:00,39.2,26.9,29.78,ESE,111,5.0,14.0,61,0.00,,---,0.00,VWS V14.01,2014-12-26 05:03:00,
2014-12-26 00:08:00,39.2,26.5,29.79,East,96,17.0,20.0,60,0.00,,---,0.00,VWS V14.01,2014-12-26 05:08:00,
2014-12-26 00:13:00,39.3,26.6,29.79,ENE,61,9.0,22.0,60,0.00,,---,0.00,VWS V14.01,2014-12-26 05:13:00,
2014-12-26 00:18:00,39.2,26.9,29.79,ESE,115,12.0,22.0,61,0.00,,---,0.00,VWS V14.01,2014-12-26 05:18:00,
2014-12-26 00:23:00,39.1,26.8,29.80,ESE,119,3.0,22.0,61,0.00,,---,0.00,VWS V14.01,2014-12-26 05:23:00,
2014-12-26 00:28:00,39.2,26.9,29.81,WNW,283,3.0,22.0,61,0.00,,---,0.00,VWS V14.01,2014-12-26 05:28:00,
2014-12-26 00:33:00,39.2,26.9,29.82,East,81,5.0,11.0,61,0.00,,---,0.00,VWS V14.01,2014-12-26 05:33:00,
2014-12-26 00:38:00,39.2,26.9,29.82,NE,50,7.0,23.0,61,0.00,,---,0.00,VWS V14.01,2014-12-26 05:38:00,
2014-12-26 00:43:00,39.3,27.0,29.82,NW,318,4.0,23.0,61,0.00,,---,0.00,VWS V14.01,2014-12-26 05:43:00,
2014-12-26 00:48:00,39.3,27.0,29.82,ESE,115,12.0,24.0,61,0.00,,---,0.00,VWS V14.01,2014-12-26 05:48:00,
2014-12-26 00:53:00,39.3,27.0,29.83,ENE,63,7.0,24.0,61,0.00,,---,0.00,VWS V14.01,2014-12-26 05:53:00,
2014-12-26 00:58:00,39.3,27.0,29.83,NW,316,7.0,24.0,61,0.00,,---,0.00,VWS V14.01,2014-12-26 05:58:00,
2014-12-26 01:03:00,39.4,27.1,29.83,ESE,107,3.0,6.0,61,0.00,,---,0.00,VWS V14.01,2014-12-26 06:03:00,
2014-12-26 01:08:00,39.2,26.9,29.83,ESE,119,8.0,18.0,61,0.00,,---,0.00,VWS V14.01,2014-12-26 06:08:00,
2014-12-26 01:13:00,39.3,27.4,29.83,SE,125,5.0,18.0,62,0.00,,---,0.00,VWS V14.01,2014-12-26 06:13:00,
2014-12-26 01:18:00,39.3,27.4,29.83,NW,317,1.0,21.0,62,0.00,,---,0.00,VWS V14.01,2014-12-26 06:18:00,
2014-12-26 01:23:00,39.3,27.4,29.83,SE,125,10.0,26.0,62,0.00,,---,0.00,VWS V14.01,2014-12-26 06:23:00,
2014-12-26 01:28:00,39.4,27.1,29.84,SE,132,3.0,32.0,61,0.00,,---,0.00,VWS V14.01,2014-12-26 06:28:00,
2014-12-26 01:33:00,39.4,27.1,29.84,East,96,3.0,4.0,61,0.00,,---,0.00,VWS V14.01,2014-12-26 06:33:00,
2014-12-26 01:38:00,39.3,27.4,29.84,ESE,115,5.0,17.0,62,0.00,,---,0.00,VWS V14.01,2014-12-26 06:38:00,
2014-12-26 01:43:00,39.2,27.3,29.85,ESE,123,5.0,17.0,62,0.00,,---,0.00,VWS V14.01,2014-12-26 06:43:00,
2014-12-26 01:48:00,39.3,27.0,29.85,ESE,117,2.0,17.0,61,0.00,,---,0.00,VWS V14.01,2014-12-26 06:48:00,
2014-12-26 01:53:00,39.3,27.0,29.85,ESE,110,4.0,21.0,61,0.00,,---,0.00,VWS V14.01,2014-12-26 06:53:00,
2014-12-26 01:58:00,39.3,27.4,29.86,SE,132,5.0,21.0,62,0.00,,---,0.00,VWS V14.01,2014-12-26 06:58:00,
2014-12-26 02:03:00,39.3,27.4,29.86,West,260,10.0,10.0,62,0.00,,---,0.00,VWS V14.01,2014-12-26 07:03:00,
2014-12-26 02:08:00,39.4,27.1,29.86,ESE,120,7.0,22.0,61,0.00,,---,0.00,VWS V14.01,2014-12-26 07:08:00,
2014-12-26 02:13:00,39.3,27.4,29.86,ESE,103,6.0,22.0,62,0.00,,---,0.00,VWS V14.01,2014-12-26 07:13:00,
2014-12-26 02:18:00,39.2,27.3,29.87,ESE,111,5.0,22.0,62,0.00,,---,0.00,VWS V14.01,2014-12-26 07:18:00,
2014-12-26 02:23:00,39.2,27.3,29.87,ESE,108,4.0,26.0,62,0.00,,---,0.00,VWS V14.01,2014-12-26 07:23:00,
2014-12-26 02:28:00,39.2,27.3,29.86,ENE,65,10.0,26.0,62,0.00,,---,0.00,VWS V14.01,2014-12-26 07:28:00,
2014-12-26 02:33:00,39.2,27.3,29.86,West,269,5.0,5.0,62,0.00,,---,0.00,VWS V14.01,2014-12-26 07:33:00,
2014-12-26 02:38:00,39.0,27.5,29.87,SE,139,4.0,11.0,63,0.00,,---,0.00,VWS V14.01,2014-12-26 07:38:00,
2014-12-26 02:43:00,39.1,27.2,29.87,ESE,117,14.0,25.0,62,0.00,,---,0.00,VWS V14.01,2014-12-26 07:43:00,
2014-12-26 02:48:00,39.0,27.1,29.87,SE,132,9.0,25.0,62,0.00,,---,0.00,VWS V14.01,2014-12-26 07:48:00,
2014-12-26 02:53:00,39.0,27.1,29.86,SE,136,18.0,25.0,62,0.00,,---,0.00,VWS V14.01,2014-12-26 07:53:00,
2014-12-26 02:58:00,39.0,27.1,29.86,SE,136,18.0,25.0,62,0.00,,---,0.00,VWS V14.01,2014-12-26 07:58:00,
2014-12-26 03:03:00,39.0,27.1,29.87,SE,136,18.0,25.0,62,0.00,,---,0.00,VWS V14.01,2014-12-26 08:03:00,
2014-12-26 03:08:00,39.0,27.1,29.86,SE,136,18.0,18.0,62,0.00,,---,0.00,VWS V14.01,2014-12-26 08:08:00,
2014-12-26 03:13:00,39.0,27.1,29.86,SE,136,18.0,18.0,62,0.00,,---,0.00,VWS V14.01,2014-12-26 08:13:00,
2014-12-26 03:18:00,39.0,27.1,29.86,SE,136,18.0,18.0,62,0.00,,---,0.00,VWS V14.01,2014-12-26 08:18:00,
2014-12-26 03:23:00,39.0,27.1,29.87,SE,136,18.0,18.0,62,0.00,,---,0.00,VWS V14.01,2014-12-26 08:23:00,
2014-12-26 03:28:00,39.0,27.1,29.87,SE,136,18.0,18.0,62,0.00,,---,0.00,VWS V14.01,2014-12-26 08:28:00,
2014-12-26 03:33:00,39.0,27.1,29.87,SE,136,18.0,18.0,62,0.00,,---,0.00,VWS V14.01,2014-12-26 08:33:00,
2014-12-26 03:38:00,39.0,27.1,29.87,SE,136,18.0,18.0,62,0.00,,---,0.00,VWS V14.01,2014-12-26 08:38:00,
2014-12-26 03:43:00,39.0,27.1,29.87,SE,136,18.0,18.0,62,0.00,,---,0.00,VWS V14.01,2014-12-26 08:43:00,
2014-12-26 03:48:00,39.0,27.1,29.87,SE,136,18.0,18.0,62,0.00,,---,0.00,VWS V14.01,2014-12-26 08:48:00,
2014-12-26 03:53:00,39.0,27.1,29.87,SE,136,18.0,18.0,62,0.00,,---,0.00,VWS V14.01,2014-12-26 08:53:00,
2014-12-26 03:58:00,39.0,27.1,29.88,SE,136,18.0,18.0,62,0.00,,---,0.00,VWS V14.01,2014-12-26 08:58:00,
2014-12-26 04:03:00,39.0,27.1,29.87,SE,136,18.0,18.0,62,0.00,,---,0.00,VWS V14.01,2014-12-26 09:03:00,
2014-12-26 04:08:00,39.0,27.1,29.89,SE,136,18.0,18.0,62,0.00,,---,0.00,VWS V14.01,2014-12-26 09:08:00,
2014-12-26 04:13:00,39.0,27.1,29.89,SE,136,18.0,18.0,62,0.00,,---,0.00,VWS V14.01,2014-12-26 09:13:00,
2014-12-26 04:18:00,39.0,27.1,29.88,SE,136,18.0,18.0,62,0.00,,---,0.00,VWS V14.01,2014-12-26 09:18:00,
2014-12-26 04:23:00,39.0,27.1,29.89,SE,136,18.0,18.0,62,0.00,,---,0.00,VWS V14.01,2014-12-26 09:23:00,
2014-12-26 04:28:00,39.0,27.1,29.89,SE,136,18.0,18.0,62,0.00,,---,0.00,VWS V14.01,2014-12-26 09:28:00,
2014-12-26 04:33:00,39.0,27.1,29.89,SE,136,18.0,18.0,62,0.00,,---,0.00,VWS V14.01,2014-12-26 09:33:00,
2014-12-26 04:38:00,39.0,27.1,29.90,SE,136,18.0,18.0,62,0.00,,---,0.00,VWS V14.01,2014-12-26 09:38:00,
2014-12-26 04:43:00,39.0,27.1,29.90,SE,136,18.0,18.0,62,0.00,,---,0.00,VWS V14.01,2014-12-26 09:43:00,
2014-12-26 04:48:00,39.0,27.1,29.90,SE,136,18.0,18.0,62,0.00,,---,0.00,VWS V14.01,2014-12-26 09:48:00,
2014-12-26 04:53:00,39.0,27.1,29.90,SE,136,18.0,18.0,62,0.00,,---,0.00,VWS V14.01,2014-12-26 09:53:00,
2014-12-26 04:58:00,39.0,27.1,29.90,SE,136,18.0,18.0,62,0.00,,---,0.00,VWS V14.01,2014-12-26 09:58:00,
2014-12-26 05:03:00,39.0,27.1,29.91,SE,136,18.0,18.0,62,0.00,,---,0.00,VWS V14.01,2014-12-26 10:03:00,
2014-12-26 05:08:00,39.0,27.1,29.91,SE,136,18.0,18.0,62,0.00,,---,0.00,VWS V14.01,2014-12-26 10:08:00,
2014-12-26 05:13:00,39.0,27.1,29.91,SE,136,18.0,18.0,62,0.00,,---,0.00,VWS V14.01,2014-12-26 10:13:00,
2014-12-26 05:18:00,39.0,27.1,29.91,SE,136,18.0,18.0,62,0.00,,---,0.00,VWS V14.01,2014-12-26 10:18:00,
2014-12-26 05:23:00,39.0,27.1,29.92,SE,136,18.0,18.0,62,0.00,,---,0.00,VWS V14.01,2014-12-26 10:23:00,
2014-12-26 05:28:00,39.0,27.1,29.92,SE,136,18.0,18.0,62,0.00,,---,0.00,VWS V14.01,2014-12-26 10:28:00,
2014-12-26 05:33:00,39.0,27.1,29.92,SE,136,18.0,18.0,62,0.00,,---,0.00,VWS V14.01,2014-12-26 10:33:00,
2014-12-26 05:38:00,39.0,27.1,29.92,SE,136,18.0,18.0,62,0.00,,---,0.00,VWS V14.01,2014-12-26 10:38:00,
2014-12-26 05:43:00,39.0,27.1,29.91,SE,136,18.0,18.0,62,0.00,,---,0.00,VWS V14.01,2014-12-26 10:43:00,
2014-12-26 05:48:00,39.0,27.1,29.92,SE,136,18.0,18.0,62,0.00,,---,0.00,VWS V14.01,2014-12-26 10:48:00,
2014-12-26 05:53:00,39.0,27.1,29.92,SE,136,18.0,18.0,62,0.00,,---,0.00,VWS V14.01,2014-12-26 10:53:00,
2014-12-26 05:58:00,39.0,27.1,29.92,SE,136,18.0,18.0,62,0.00,,---,0.00,VWS V14.01,2014-12-26 10:58:00,
2014-12-26 06:03:00,39.0,27.1,29.92,SE,136,18.0,18.0,62,0.00,,---,0.00,VWS V14.01,2014-12-26 11:03:00,
2014-12-26 06:08:00,39.0,27.1,29.93,SE,136,18.0,18.0,62,0.00,,---,0.00,VWS V14.01,2014-12-26 11:08:00,
2014-12-26 06:13:00,39.0,27.1,29.92,SE,136,18.0,18.0,62,0.00,,---,0.00,VWS V14.01,2014-12-26 11:13:00,
2014-12-26 06:18:00,39.0,27.1,29.93,SE,136,18.0,18.0,62,0.00,,---,0.00,VWS V14.01,2014-12-26 11:18:00,
2014-12-26 06:23:00,39.0,27.1,29.94,SE,136,18.0,18.0,62,0.00,,---,0.00,VWS V14.01,2014-12-26 11:23:00,
2014-12-26 06:28:00,39.0,27.1,29.94,SE,136,18.0,18.0,62,0.00,,---,0.00,VWS V14.01,2014-12-26 11:28:00,
2014-12-26 06:33:00,39.0,27.1,29.95,SE,136,18.0,18.0,62,0.00,,---,0.00,VWS V14.01,2014-12-26 11:33:00,
2014-12-26 06:38:00,39.0,27.1,29.94,SE,136,18.0,18.0,62,0.00,,---,0.00,VWS V14.01,2014-12-26 11:38:00,
2014-12-26 06:43:00,39.0,27.1,29.94,SE,136,18.0,18.0,62,0.00,,---,0.00,VWS V14.01,2014-12-26 11:43:00,
2014-12-26 06:48:00,39.0,27.1,29.95,SE,136,18.0,18.0,62,0.00,,---,0.00,VWS V14.01,2014-12-26 11:48:00,
2014-12-26 06:53:00,39.0,27.1,29.95,SE,136,18.0,18.0,62,0.00,,---,0.00,VWS V14.01,2014-12-26 11:53:00,
2014-12-26 06:58:00,39.0,27.1,29.95,SE,136,18.0,18.0,62,0.00,,---,0.00,VWS V14.01,2014-12-26 11:58:00,
2014-12-26 07:03:00,39.0,27.1,29.95,SE,136,18.0,18.0,62,0.00,,---,0.00,VWS V14.01,2014-12-26 12:03:00,
2014-12-26 07:08:00,39.0,27.1,29.95,SE,136,18.0,18.0,62,0.00,,---,0.00,VWS V14.01,2014-12-26 12:08:00,
2014-12-26 07:13:00,39.0,27.1,29.95,SE,136,18.0,18.0,62,0.00,,---,0.00,VWS V14.01,2014-12-26 12:13:00,
2014-12-26 07:18:00,39.0,27.1,29.95,SE,136,18.0,18.0,62,0.00,,---,0.00,VWS V14.01,2014-12-26 12:18:00,
2014-12-26 07:23:00,39.0,27.1,29.95,SE,136,18.0,18.0,62,0.00,,---,0.00,VWS V14.01,2014-12-26 12:23:00,
2014-12-26 07:28:00,39.0,27.1,29.96,SE,136,18.0,18.0,62,0.00,,---,0.00,VWS V14.01,2014-12-26 12:28:00,
2014-12-26 07:33:00,39.0,27.1,29.96,SE,136,18.0,18.0,62,0.00,,---,0.00,VWS V14.01,2014-12-26 12:33:00,
2014-12-26 07:38:00,39.0,27.1,29.96,SE,136,18.0,18.0,62,0.00,,---,0.00,VWS V14.01,2014-12-26 12:38:00,
2014-12-26 07:43:00,39.0,27.1,29.97,SE,136,18.0,18.0,62,0.00,,---,0.00,VWS V14.01,2014-12-26 12:43:00,
2014-12-26 07:48:00,39.0,27.1,29.98,SE,136,18.0,18.0,62,0.00,,---,0.00,VWS V14.01,2014-12-26 12:48:00,
2014-12-26 07:53:00,39.0,27.1,29.98,SE,136,18.0,18.0,62,0.00,,---,0.00,VWS V14.01,2014-12-26 12:53:00,
2014-12-26 07:58:00,39.0,27.1,29.98,SE,136,18.0,18.0,62,0.00,,---,0.00,VWS V14.01,2014-12-26 12:58:00,
2014-12-26 08:03:00,39.0,27.1,29.98,SE,136,18.0,18.0,62,0.00,,---,0.00,VWS V14.01,2014-12-26 13:03:00,
2014-12-26 08:08:00,39.0,27.1,29.99,SE,136,18.0,18.0,62,0.00,,---,0.00,VWS V14.01,2014-12-26 13:08:00,
2014-12-26 08:13:00,39.0,27.1,30.00,SE,136,18.0,18.0,62,0.00,,---,0.00,VWS V14.01,2014-12-26 13:13:00,
2014-12-26 08:18:00,39.2,27.3,29.99,West,280,4.0,18.0,62,0.00,,---,0.00,VWS V14.01,2014-12-26 13:18:00,
2014-12-26 08:22:00,39.3,27.4,30.00,SE,125,8.0,28.0,62,0.00,,---,0.00,VWS V14.01,2014-12-26 13:22:00,
2014-12-26 08:27:00,39.4,27.5,30.00,ESE,122,4.0,28.0,62,0.00,,---,0.00,VWS V14.01,2014-12-26 13:27:00,
2014-12-26 08:32:00,39.3,27.4,30.00,WSW,246,9.0,28.0,62,0.00,,---,0.00,VWS V14.01,2014-12-26 13:32:00,
2014-12-26 08:37:00,39.3,27.4,30.01,SSE,165,4.0,17.0,62,0.00,,---,0.00,VWS V14.01,2014-12-26 13:37:00,
2014-12-26 08:42:00,39.2,26.9,30.02,ESE,121,2.0,17.0,61,0.00,,---,0.00,VWS V14.01,2014-12-26 13:42:00,
2014-12-26 08:47:00,39.3,27.4,30.02,ESE,102,5.0,17.0,62,0.00,,---,0.00,VWS V14.01,2014-12-26 13:47:00,
2014-12-26 08:52:00,39.3,27.4,30.02,SE,144,1.0,17.0,62,0.00,,---,0.00,VWS V14.01,2014-12-26 13:52:00,
2014-12-26 08:57:00,39.4,27.5,30.02,West,264,11.0,21.0,62,0.00,,---,0.00,VWS V14.01,2014-12-26 13:57:00,
2014-12-26 09:02:00,39.3,27.4,30.02,ESE,122,2.0,21.0,62,0.00,,---,0.00,VWS V14.01,2014-12-26 14:02:00,
2014-12-26 09:07:00,39.2,27.7,30.03,SE,125,11.0,15.0,63,0.00,,---,0.00,VWS V14.01,2014-12-26 14:07:00,
2014-12-26 09:12:00,39.3,27.4,30.03,ESE,117,3.0,15.0,62,0.00,,---,0.00,VWS V14.01,2014-12-26 14:12:00,
2014-12-26 09:17:00,39.3,27.4,30.02,East,79,1.0,15.0,62,0.00,,---,0.00,VWS V14.01,2014-12-26 14:17:00,
2014-12-26 09:22:00,39.3,27.8,30.03,WSW,249,6.0,15.0,63,0.00,,---,0.00,VWS V14.01,2014-12-26 14:22:00,
2014-12-26 09:27:00,39.5,27.2,30.03,ESE,121,1.0,17.0,61,0.00,,---,0.00,VWS V14.01,2014-12-26 14:27:00,
2014-12-26 09:32:00,39.6,27.7,30.02,ESE,109,7.0,17.0,62,0.00,,---,0.00,VWS V14.01,2014-12-26 14:32:00,
2014-12-26 09:37:00,39.7,27.4,30.04,NNE,22,6.0,11.0,61,0.00,,---,0.00,VWS V14.01,2014-12-26 14:37:00,
2014-12-26 09:42:00,39.6,27.3,30.04,ESE,121,4.0,12.0,61,0.00,,---,0.00,VWS V14.01,2014-12-26 14:42:00,
2014-12-26 09:47:00,39.7,27.8,30.04,North,9,7.0,12.0,62,0.00,,---,0.00,VWS V14.01,2014-12-26 14:47:00,
2014-12-26 09:52:00,39.7,27.8,30.04,ESE,105,10.0,21.0,62,0.00,,---,0.00,VWS V14.01,2014-12-26 14:52:00,
2014-12-26 09:57:00,39.9,27.6,30.04,SE,134,4.0,21.0,61,0.00,,---,0.00,VWS V14.01,2014-12-26 14:57:00,
2014-12-26 10:02:00,39.9,27.6,30.04,West,276,0.0,21.0,61,0.00,,---,0.00,VWS V14.01,2014-12-26 15:02:00,
2014-12-26 10:07:00,40.0,27.6,30.04,ENE,60,1.0,8.0,61,0.00,,---,0.00,VWS V14.01,2014-12-26 15:07:00,
2014-12-26 10:12:00,39.8,27.5,30.03,North,11,6.0,9.0,61,0.00,,---,0.00,VWS V14.01,2014-12-26 15:12:00,
2014-12-26 10:17:00,39.6,27.7,30.04,WSW,238,2.0,9.0,62,0.00,,---,0.00,VWS V14.01,2014-12-26 15:17:00,
2014-12-26 10:22:00,39.7,28.1,30.03,NNE,18,5.0,9.0,63,0.00,,---,0.00,VWS V14.01,2014-12-26 15:22:00,
2014-12-26 10:27:00,39.7,28.1,30.03,SE,125,1.0,9.0,63,0.00,,---,0.00,VWS V14.01,2014-12-26 15:27:00,
2014-12-26 10:32:00,39.7,28.1,30.03,ESE,120,1.0,9.0,63,0.00,,---,0.00,VWS V14.01,2014-12-26 15:32:00,
2014-12-26 10:37:00,39.9,28.3,30.03,SE,135,1.0,3.0,63,0.00,,---,0.00,VWS V14.01,2014-12-26 15:37:00,
2014-12-26 10:42:00,39.9,28.0,30.03,East,86,5.0,8.0,62,0.00,,---,0.00,VWS V14.01,2014-12-26 15:42:00,
2014-12-26 10:47:00,40.0,28.8,30.03,SE,129,0.0,8.0,64,0.00,,---,0.00,VWS V14.01,2014-12-26 15:47:00,
2014-12-26 10:52:00,39.7,28.5,30.03,SSW,200,1.0,8.0,64,0.00,,---,0.00,VWS V14.01,2014-12-26 15:52:00,
2014-12-26 10:57:00,39.9,28.3,30.02,ENE,57,1.0,8.0,63,0.00,,---,0.00,VWS V14.01,2014-12-26 15:57:00,
2014-12-26 11:02:00,39.9,29.1,30.02,SW,228,0.0,8.0,65,0.00,,---,0.00,VWS V14.01,2014-12-26 16:02:00,
2014-12-26 11:07:00,40.0,28.8,30.04,West,271,0.0,2.0,64,0.00,,---,0.00,VWS V14.01,2014-12-26 16:07:00,
2014-12-26 11:12:00,40.0,28.4,30.03,WNW,285,1.0,4.0,63,0.00,,---,0.00,VWS V14.01,2014-12-26 16:12:00,
2014-12-26 11:17:00,40.1,28.5,30.02,West,273,1.0,5.0,63,0.00,,---,0.00,VWS V14.01,2014-12-26 16:17:00,
2014-12-26 11:22:00,40.0,29.2,30.02,West,269,2.0,5.0,65,0.00,,---,0.00,VWS V14.01,2014-12-26 16:22:00,
2014-12-26 11:27:00,40.1,28.5,30.02,NE,36,1.0,5.0,63,0.00,,---,0.00,VWS V14.01,2014-12-26 16:27:00,
2014-12-26 11:32:00,40.4,28.8,30.02,West,266,0.0,5.0,63,0.00,,---,0.00,VWS V14.01,2014-12-26 16:32:00,
2014-12-26 11:37:00,40.5,28.5,30.01,ESE,113,0.0,4.0,62,0.00,,---,0.00,VWS V14.01,2014-12-26 16:37:00,
2014-12-26 11:42:00,40.7,28.3,30.02,ESE,115,7.0,18.0,61,0.00,,---,0.00,VWS V14.01,2014-12-26 16:42:00,
2014-12-26 11:47:00,40.9,28.9,30.01,SE,132,1.0,18.0,62,0.00,,---,0.00,VWS V14.01,2014-12-26 16:47:00,
2014-12-26 11:52:00,40.9,28.5,30.01,ESE,121,6.0,18.0,61,0.00,,---,0.00,VWS V14.01,2014-12-26 16:52:00,
2014-12-26 11:57:00,40.9,28.5,30.01,ESE,115,13.0,19.0,61,0.00,,---,0.00,VWS V14.01,2014-12-26 16:57:00,
2014-12-26 12:02:00,40.9,28.9,30.03,East,89,6.0,21.0,62,0.00,,---,0.00,VWS V14.01,2014-12-26 17:02:00,
2014-12-26 12:07:00,40.9,28.9,30.03,East,101,5.0,18.0,62,0.00,,---,0.00,VWS V14.01,2014-12-26 17:07:00,
2014-12-26 12:12:00,41.0,29.0,30.03,ESE,113,6.0,19.0,62,0.00,,---,0.00,VWS V14.01,2014-12-26 17:12:00,
2014-12-26 12:17:00,41.0,29.0,30.03,WSW,255,4.0,19.0,62,0.00,,---,0.00,VWS V14.01,2014-12-26 17:17:00,
2014-12-26 12:22:00,41.1,29.1,30.02,SE,139,2.0,19.0,62,0.00,,---,0.00,VWS V14.01,2014-12-26 17:22:00,
2014-12-26 12:27:00,41.1,29.1,30.03,SE,134,6.0,19.0,62,0.00,,---,0.00,VWS V14.01,2014-12-26 17:27:00,
2014-12-26 12:32:00,41.1,29.1,30.02,SE,129,3.0,19.0,62,0.00,,---,0.00,VWS V14.01,2014-12-26 17:32:00,
2014-12-26 12:37:00,41.1,29.1,30.02,SSE,155,4.0,21.0,62,0.00,,---,0.00,VWS V14.01,2014-12-26 17:37:00,
2014-12-26 12:42:00,41.0,29.0,30.03,SE,134,8.0,21.0,62,0.00,,---,0.00,VWS V14.01,2014-12-26 17:42:00,
2014-12-26 12:47:00,41.0,29.4,30.03,ESE,122,11.0,21.0,63,0.00,,---,0.00,VWS V14.01,2014-12-26 17:47:00,
2014-12-26 12:52:00,41.1,29.5,30.03,West,263,5.0,21.0,63,0.00,,---,0.00,VWS V14.01,2014-12-26 17:52:00,
2014-12-26 12:57:00,41.1,29.5,30.02,ESE,116,3.0,21.0,63,0.00,,---,0.00,VWS V14.01,2014-12-26 17:57:00,
2014-12-26 13:02:00,41.1,29.5,30.03,ESE,115,9.0,21.0,63,0.00,,---,0.00,VWS V14.01,2014-12-26 18:02:00,
2014-12-26 13:07:00,41.0,29.4,30.03,SSE,163,4.0,16.0,63,0.00,,---,0.00,VWS V14.01,2014-12-26 18:07:00,
2014-12-26 13:12:00,41.0,29.4,30.02,ESE,114,7.0,16.0,63,0.00,,---,0.00,VWS V14.01,2014-12-26 18:12:00,
2014-12-26 13:17:00,41.1,29.5,30.02,East,81,7.0,16.0,63,0.00,,---,0.00,VWS V14.01,2014-12-26 18:17:00,
2014-12-26 13:22:00,41.2,29.2,30.02,SE,125,6.0,16.0,62,0.00,,---,0.00,VWS V14.01,2014-12-26 18:22:00,
2014-12-26 13:27:00,41.2,29.6,30.01,East,101,8.0,16.0,63,0.00,,---,0.00,VWS V14.01,2014-12-26 18:27:00,
2014-12-26 13:32:00,41.3,29.3,30.01,SE,130,15.0,18.0,62,0.00,,---,0.00,VWS V14.01,2014-12-26 18:32:00,
2014-12-26 13:37:00,41.5,29.5,30.02,ESE,113,6.0,18.0,62,0.00,,---,0.00,VWS V14.01,2014-12-26 18:37:00,
2014-12-26 13:42:00,41.9,29.5,30.02,ESE,112,12.0,18.0,61,0.00,,---,0.00,VWS V14.01,2014-12-26 18:42:00,
2014-12-26 13:47:00,41.9,29.5,30.02,ESE,112,7.0,18.0,61,0.00,,---,0.00,VWS V14.01,2014-12-26 18:47:00,
2014-12-26 13:52:00,42.1,29.6,30.02,ESE,108,12.0,18.0,61,0.00,,---,0.00,VWS V14.01,2014-12-26 18:52:00,
2014-12-26 13:57:00,42.2,29.7,30.01,ESE,113,3.0,18.0,61,0.00,,---,0.00,VWS V14.01,2014-12-26 18:57:00,
2014-12-26 14:02:00,42.2,29.3,30.01,East,98,12.0,21.0,60,0.00,,---,0.00,VWS V14.01,2014-12-26 19:02:00,
2014-12-26 14:07:00,42.1,29.6,30.02,South,181,1.0,8.0,61,0.00,,---,0.00,VWS V14.01,2014-12-26 19:07:00,
2014-12-26 14:12:00,42.4,29.5,30.01,ESE,110,8.0,18.0,60,0.00,,---,0.00,VWS V14.01,2014-12-26 19:12:00,
2014-12-26 14:17:00,42.6,29.7,30.01,ESE,113,4.0,18.0,60,0.00,,---,0.00,VWS V14.01,2014-12-26 19:17:00,
2014-12-26 14:22:00,42.8,29.9,30.01,SE,125,6.0,18.0,60,0.00,,---,0.00,VWS V14.01,2014-12-26 19:22:00,
2014-12-26 14:27:00,42.9,30.0,30.02,South,191,2.0,18.0,60,0.00,,---,0.00,VWS V14.01,2014-12-26 19:27:00,
2014-12-26 14:32:00,43.1,30.2,30.03,SE,127,6.0,25.0,60,0.00,,---,0.00,VWS V14.01,2014-12-26 19:32:00,
2014-12-26 14:37:00,43.5,30.5,30.03,East,92,2.0,11.0,60,0.00,,---,0.00,VWS V14.01,2014-12-26 19:37:00,
2014-12-26 14:42:00,44.0,30.6,30.03,ESE,122,7.0,11.0,59,0.00,,---,0.00,VWS V14.01,2014-12-26 19:42:00,
2014-12-26 14:47:00,44.3,30.5,30.03,NE,56,3.0,12.0,58,0.00,,---,0.00,VWS V14.01,2014-12-26 19:47:00,
2014-12-26 14:52:00,44.5,30.7,30.03,ESE,109,4.0,12.0,58,0.00,,---,0.00,VWS V14.01,2014-12-26 19:52:00,
2014-12-26 14:57:00,44.5,30.7,30.03,East,100,5.0,12.0,58,0.00,,---,0.00,VWS V14.01,2014-12-26 19:57:00,
2014-12-26 15:02:00,44.9,31.0,30.03,SE,134,0.0,12.0,58,0.00,,---,0.00,VWS V14.01,2014-12-26 20:02:00,
2014-12-26 15:07:00,44.8,30.5,30.03,ENE,71,6.0,7.0,57,0.00,,---,0.00,VWS V14.01,2014-12-26 20:07:00,
2014-12-26 15:12:00,44.2,30.4,30.03,ESE,123,5.0,7.0,58,0.00,,---,0.00,VWS V14.01,2014-12-26 20:12:00,
2014-12-26 15:17:00,44.0,30.2,30.03,ESE,106,5.0,8.0,58,0.00,,---,0.00,VWS V14.01,2014-12-26 20:17:00,
2014-12-26 15:22:00,43.4,30.5,30.04,ESE,110,5.0,8.0,60,0.00,,---,0.00,VWS V14.01,2014-12-26 20:22:00,
2014-12-26 15:27:00,43.0,30.1,30.04,ESE,118,4.0,9.0,60,0.00,,---,0.00,VWS V14.01,2014-12-26 20:27:00,
2014-12-26 15:32:00,42.4,29.9,30.03,East,101,3.0,9.0,61,0.00,,---,0.00,VWS V14.01,2014-12-26 20:32:00,
2014-12-26 15:37:00,42.2,30.1,30.04,ESE,112,8.0,8.0,62,0.00,,---,0.00,VWS V14.01,2014-12-26 20:37:00,
2014-12-26 15:42:00,42.0,29.9,30.04,ESE,116,5.0,14.0,62,0.00,,---,0.00,VWS V14.01,2014-12-26 20:42:00,
2014-12-26 15:47:00,41.8,30.1,30.04,ESE,109,6.0,14.0,63,0.00,,---,0.00,VWS V14.01,2014-12-26 20:47:00,
2014-12-26 15:52:00,41.6,30.0,30.04,ESE,112,4.0,14.0,63,0.00,,---,0.00,VWS V14.01,2014-12-26 20:52:00,
2014-12-26 15:57:00,41.1,30.2,30.03,East,79,8.0,14.0,65,0.00,,---,0.00,VWS V14.01,2014-12-26 20:57:00,
2014-12-26 16:02:00,40.9,30.1,30.04,ESE,103,3.0,14.0,65,0.00,,---,0.00,VWS V14.01,2014-12-26 21:02:00,
2014-12-26 16:07:00,40.6,30.1,30.04,SE,133,3.0,5.0,66,0.00,,---,0.00,VWS V14.01,2014-12-26 21:07:00,
2014-12-26 16:12:00,40.3,29.9,30.03,ESE,110,4.0,7.0,66,0.00,,---,0.00,VWS V14.01,2014-12-26 21:12:00,
2014-12-26 16:17:00,40.3,30.2,30.03,SSE,158,0.0,7.0,67,0.00,,---,0.00,VWS V14.01,2014-12-26 21:17:00,
2014-12-26 16:22:00,40.0,29.9,30.03,SE,127,3.0,7.0,67,0.00,,---,0.00,VWS V14.01,2014-12-26 21:22:00,
2014-12-26 16:27:00,39.8,30.1,30.03,ESE,108,8.0,9.0,68,0.00,,---,0.00,VWS V14.01,2014-12-26 21:27:00,
2014-12-26 16:32:00,39.7,30.0,30.03,SE,128,3.0,9.0,68,0.00,,---,0.00,VWS V14.01,2014-12-26 21:32:00,
2014-12-26 16:37:00,39.3,30.0,30.03,ESE,119,5.0,8.0,69,0.00,,---,0.00,VWS V14.01,2014-12-26 21:37:00,
2014-12-26 16:42:00,39.5,30.2,30.03,ESE,120,5.0,8.0,69,0.00,,---,0.00,VWS V14.01,2014-12-26 21:42:00,
2014-12-26 16:47:00,39.5,30.2,30.03,East,80,5.0,12.0,69,0.00,,---,0.00,VWS V14.01,2014-12-26 21:47:00,
2014-12-26 16:52:00,39.6,29.9,30.03,ESE,109,4.0,12.0,68,0.00,,---,0.00,VWS V14.01,2014-12-26 21:52:00,
2014-12-26 16:57:00,39.7,30.0,30.02,ESE,121,3.0,12.0,68,0.00,,---,0.00,VWS V14.01,2014-12-26 21:57:00,
2014-12-26 17:02:00,39.7,30.0,30.03,SE,130,2.0,12.0,68,0.00,,---,0.00,VWS V14.01,2014-12-26 22:02:00,
2014-12-26 17:07:00,39.5,30.2,30.02,ESE,120,3.0,4.0,69,0.00,,---,0.00,VWS V14.01,2014-12-26 22:07:00,
2014-12-26 17:12:00,39.1,29.8,30.02,ESE,123,5.0,7.0,69,0.00,,---,0.00,VWS V14.01,2014-12-26 22:12:00,
2014-12-26 17:17:00,39.4,29.7,30.02,SE,139,0.0,7.0,68,0.00,,---,0.00,VWS V14.01,2014-12-26 22:17:00,
2014-12-26 17:22:00,38.8,29.9,30.01,SW,218,1.0,7.0,70,0.00,,---,0.00,VWS V14.01,2014-12-26 22:22:00,
2014-12-26 17:27:00,38.6,29.7,30.02,SE,139,0.0,7.0,70,0.00,,---,0.00,VWS V14.01,2014-12-26 22:27:00,
2014-12-26 17:32:00,38.7,29.8,30.02,ENE,61,1.0,7.0,70,0.00,,---,0.00,VWS V14.01,2014-12-26 22:32:00,
2014-12-26 17:37:00,38.5,29.6,30.02,ESE,121,2.0,3.0,70,0.00,,---,0.00,VWS V14.01,2014-12-26 22:37:00,
2014-12-26 17:42:00,38.8,29.5,30.03,ESE,121,2.0,6.0,69,0.00,,---,0.00,VWS V14.01,2014-12-26 22:42:00,
2014-12-26 17:47:00,39.1,29.8,30.03,ESE,122,4.0,7.0,69,0.00,,---,0.00,VWS V14.01,2014-12-26 22:47:00,
2014-12-26 17:52:00,39.3,29.6,30.03,East,84,5.0,8.0,68,0.00,,---,0.00,VWS V14.01,2014-12-26 22:52:00,
2014-12-26 17:57:00,39.2,29.5,30.03,SE,129,2.0,12.0,68,0.00,,---,0.00,VWS V14.01,2014-12-26 22:57:00,
2014-12-26 18:02:00,39.2,29.5,30.04,ESE,119,9.0,12.0,68,0.00,,---,0.00,VWS V14.01,2014-12-26 23:02:00,
2014-12-26 18:07:00,39.2,29.9,30.04,SE,129,5.0,8.0,69,0.00,,---,0.00,VWS V14.01,2014-12-26 23:07:00,
2014-12-26 18:12:00,39.2,29.5,30.04,ESE,120,5.0,8.0,68,0.00,,---,0.00,VWS V14.01,2014-12-26 23:12:00,
2014-12-26 18:17:00,39.1,29.8,30.04,ESE,115,2.0,8.0,69,0.00,,---,0.00,VWS V14.01,2014-12-26 23:17:00,
2014-12-26 18:22:00,39.0,29.7,30.04,ESE,121,5.0,9.0,69,0.00,,---,0.00,VWS V14.01,2014-12-26 23:22:00,
2014-12-26 18:27:00,38.9,29.6,30.04,East,89,8.0,14.0,69,0.00,,---,0.00,VWS V14.01,2014-12-26 23:27:00,
2014-12-26 18:32:00,39.0,29.7,30.05,ESE,107,7.0,14.0,69,0.00,,---,0.00,VWS V14.01,2014-12-26 23:32:00,
2014-12-26 18:37:00,39.1,29.8,30.04,ESE,119,5.0,11.0,69,0.00,,---,0.00,VWS V14.01,2014-12-26 23:37:00,
2014-12-26 18:42:00,39.1,29.8,30.05,ESE,105,8.0,11.0,69,0.00,,---,0.00,VWS V14.01,2014-12-26 23:42:00,
2014-12-26 18:47:00,38.8,29.9,30.05,East,101,6.0,11.0,70,0.00,,---,0.00,VWS V14.01,2014-12-26 23:47:00,
2014-12-26 18:52:00,38.6,29.7,30.05,ESE,115,4.0,11.0,70,0.00,,---,0.00,VWS V14.01,2014-12-26 23:52:00,
2014-12-26 18:57:00,38.4,29.8,30.05,SE,124,5.0,11.0,71,0.00,,---,0.00,VWS V14.01,2014-12-26 23:57:00,
2014-12-26 19:02:00,38.3,29.7,30.06,East,95,9.0,11.0,71,0.00,,---,0.00,VWS V14.01,2014-12-27 00:02:00,
2014-12-26 19:07:00,38.1,29.5,30.05,ESE,122,6.0,12.0,71,0.00,,---,0.00,VWS V14.01,2014-12-27 00:07:00,
2014-12-26 19:12:00,38.2,29.6,30.05,ESE,117,9.0,15.0,71,0.00,,---,0.00,VWS V14.01,2014-12-27 00:12:00,
2014-12-26 19:17:00,38.2,29.6,30.05,ESE,122,12.0,15.0,71,0.00,,---,0.00,VWS V14.01,2014-12-27 00:17:00,
2014-12-26 19:22:00,38.5,29.9,30.05,ESE,115,8.0,15.0,71,0.00,,---,0.00,VWS V14.01,2014-12-27 00:22:00,
2014-12-26 19:27:00,38.4,29.8,30.05,ESE,109,11.0,15.0,71,0.00,,---,0.00,VWS V14.01,2014-12-27 00:27:00,
2014-12-26 19:32:00,38.4,29.8,30.05,ESE,115,9.0,15.0,71,0.00,,---,0.00,VWS V14.01,2014-12-27 00:32:00,
2014-12-26 19:37:00,38.2,29.6,30.05,ESE,122,13.0,14.0,71,0.00,,---,0.00,VWS V14.01,2014-12-27 00:37:00,
2014-12-26 19:42:00,38.1,29.9,30.06,SE,125,12.0,15.0,72,0.00,,---,0.00,VWS V14.01,2014-12-27 00:42:00,
2014-12-26 19:47:00,38.5,29.9,30.06,SE,125,9.0,16.0,71,0.00,,---,0.00,VWS V14.01,2014-12-27 00:47:00,
2014-12-26 19:52:00,38.8,29.9,30.06,ESE,115,9.0,16.0,70,0.00,,---,0.00,VWS V14.01,2014-12-27 00:52:00,
2014-12-26 19:57:00,38.7,29.8,30.07,SE,128,6.0,16.0,70,0.00,,---,0.00,VWS V14.01,2014-12-27 00:57:00,
2014-12-26 20:02:00,38.5,29.6,30.07,East,96,5.0,16.0,70,0.00,,---,0.00,VWS V14.01,2014-12-27 01:02:00,
2014-12-26 20:07:00,38.5,29.9,30.07,East,87,9.0,10.0,71,0.00,,---,0.00,VWS V14.01,2014-12-27 01:07:00,
2014-12-26 20:12:00,38.2,29.6,30.06,ESE,122,6.0,13.0,71,0.00,,---,0.00,VWS V14.01,2014-12-27 01:12:00,
2014-12-26 20:17:00,38.3,29.7,30.06,SE,142,7.0,14.0,71,0.00,,---,0.00,VWS V14.01,2014-12-27 01:17:00,
2014-12-26 20:22:00,38.4,29.8,30.06,ESE,116,6.0,16.0,71,0.00,,---,0.00,VWS V14.01,2014-12-27 01:22:00,
2014-12-26 20:26:00,38.3,29.7,30.06,ESE,111,8.0,16.0,71,0.00,,---,0.00,VWS V14.01,2014-12-27 01:26:00,
2014-12-26 20:31:00,38.2,29.6,30.06,ESE,108,8.0,16.0,71,0.00,,---,0.00,VWS V14.01,2014-12-27 01:31:00,
2014-12-26 20:36:00,38.1,29.9,30.06,ESE,109,10.0,16.0,72,0.00,,---,0.00,VWS V14.01,2014-12-27 01:36:00,
2014-12-26 20:41:00,38.0,29.8,30.07,SE,135,5.0,16.0,72,0.00,,---,0.00,VWS V14.01,2014-12-27 01:41:00,
2014-12-26 20:46:00,37.7,29.8,30.07,ESE,122,7.0,16.0,73,0.00,,---,0.00,VWS V14.01,2014-12-27 01:46:00,
2014-12-26 20:51:00,38.6,30.0,30.07,ESE,120,8.0,16.0,71,0.00,,---,0.00,VWS V14.01,2014-12-27 01:51:00,
2014-12-26 20:56:00,38.6,30.0,30.07,ESE,107,7.0,16.0,71,0.00,,---,0.00,VWS V14.01,2014-12-27 01:56:00,
2014-12-26 21:01:00,38.7,29.8,30.07,ESE,108,7.0,16.0,70,0.00,,---,0.00,VWS V14.01,2014-12-27 02:01:00,
2014-12-26 21:06:00,38.7,29.8,30.06,ESE,121,6.0,10.0,70,0.00,,---,0.00,VWS V14.01,2014-12-27 02:06:00,
2014-12-26 21:11:00,38.6,29.7,30.07,ESE,116,6.0,14.0,70,0.00,,---,0.00,VWS V14.01,2014-12-27 02:11:00,
2014-12-26 21:16:00,38.4,29.8,30.07,ESE,119,7.0,14.0,71,0.00,,---,0.00,VWS V14.01,2014-12-27 02:16:00,
2014-12-26 21:21:00,38.8,29.9,30.07,ESE,122,7.0,17.0,70,0.00,,---,0.00,VWS V14.01,2014-12-27 02:21:00,
2014-12-26 21:26:00,39.1,29.8,30.07,ESE,112,14.0,17.0,69,0.00,,---,0.00,VWS V14.01,2014-12-27 02:26:00,
2014-12-26 21:31:00,39.4,29.7,30.07,ESE,122,6.0,17.0,68,0.00,,---,0.00,VWS V14.01,2014-12-27 02:31:00,
2014-12-26 21:36:00,39.3,29.6,30.08,ESE,118,6.0,17.0,68,0.00,,---,0.00,VWS V14.01,2014-12-27 02:36:00,
2014-12-26 21:41:00,39.6,29.6,30.08,ESE,109,2.0,17.0,67,0.00,,---,0.00,VWS V14.01,2014-12-27 02:41:00,
2014-12-26 21:46:00,39.5,29.5,30.07,SE,129,4.0,17.0,67,0.00,,---,0.00,VWS V14.01,2014-12-27 02:46:00,
2014-12-26 21:51:00,39.6,29.6,30.08,ESE,115,8.0,17.0,67,0.00,,---,0.00,VWS V14.01,2014-12-27 02:51:00,
2014-12-26 21:56:00,39.6,29.6,30.07,SE,125,6.0,17.0,67,0.00,,---,0.00,VWS V14.01,2014-12-27 02:56:00,
2014-12-26 22:01:00,39.5,29.5,30.07,ESE,117,9.0,17.0,67,0.00,,---,0.00,VWS V14.01,2014-12-27 03:01:00,
2014-12-26 22:06:00,39.6,29.2,30.08,ESE,115,9.0,22.0,66,0.00,,---,0.00,VWS V14.01,2014-12-27 03:06:00,
2014-12-26 22:11:00,39.5,29.1,30.08,ESE,108,13.0,23.0,66,0.00,,---,0.00,VWS V14.01,2014-12-27 03:11:00,
2014-12-26 22:16:00,39.4,29.4,30.08,ESE,120,7.0,23.0,67,0.00,,---,0.00,VWS V14.01,2014-12-27 03:16:00,
2014-12-26 22:21:00,39.1,29.5,30.08,SE,139,7.0,23.0,68,0.00,,---,0.00,VWS V14.01,2014-12-27 03:21:00,
2014-12-26 22:26:00,39.2,29.2,30.08,ESE,115,8.0,24.0,67,0.00,,---,0.00,VWS V14.01,2014-12-27 03:26:00,
2014-12-26 22:31:00,39.1,29.5,30.08,SE,134,5.0,24.0,68,0.00,,---,0.00,VWS V14.01,2014-12-27 03:31:00,
2014-12-26 22:36:00,39.1,29.1,30.08,West,259,2.0,15.0,67,0.00,,---,0.00,VWS V14.01,2014-12-27 03:36:00,
2014-12-26 22:41:00,39.1,29.1,30.08,ESE,118,4.0,15.0,67,0.00,,---,0.00,VWS V14.01,2014-12-27 03:41:00,
2014-12-26 22:46:00,39.1,29.1,30.08,East,101,2.0,15.0,67,0.00,,---,0.00,VWS V14.01,2014-12-27 03:46:00,
2014-12-26 22:51:00,38.9,29.2,30.08,ESE,105,4.0,15.0,68,0.00,,---,0.00,VWS V14.01,2014-12-27 03:51:00,